Weather History for KHQM - January, 2014

Change the Weather History Date:

Monday, January 20, 2014

  Actual Average Record
Temperature  
Mean Temperature 44 °F 43 °F  
Max Temperature 51 °F 48 °F 63 °F (1961)
Min Temperature 37 °F 38 °F 21 °F (1962)
Degree Days  
Heating Degree Days 21 22  
Month to date heating degree days 430 451  
Cooling Degree Days 0 0  
Month to date cooling degree days 0 0  
Year to date cooling degree days 0 0  
Moisture  
Dew Point 32 °F    
Average Humidity 93    
Maximum Humidity 100    
Minimum Humidity 86    
Precipitation  
Precipitation 0.00 in 0.33 in 1.85 in (1968)
Month to date precipitation 5.08 7.01  
Year to date precipitation 5.08 7.01  
Sea Level Pressure  
Sea Level Pressure 30.26 in    
Wind  
Wind Speed 14 mph (ENE)    
Max Wind Speed 20 mph    
Max Gust Speed 27 mph    
Visibility 6 miles    
Events      
T = Trace of Precipitation, MM = Missing Value Source: NWS Daily Summary

Daily Weather History Graph

Daily Weather History Graph

Search for Another Location

Airport or City:

Trip Planner

Search our weather history database for the weather conditions in past years. The results will help you decide how hot, cold, wet, or windy it might be!

Date:

Astronomy

Jan. 20, 2014 Rise Set
Actual Time 7:53 AM PST 5:00 PM PST
Civil Twilight 7:19 AM PST 5:34 PM PST
Nautical Twilight 6:42 AM PST 6:12 PM PST
Astronomical Twilight 6:05 AM PST 6:48 PM PST
Moon 10:02 PM PST (1/20) 9:36 AM PST (1/20)
Length of Visible Light 10h 15m
Length of Day
9h 07m
Waning Gibbous, 82% of the Moon is Illuminated
Jan 20
Waning Gibbous
Jan 23
Last Quarter
Jan 30
New
Feb 6
First Quarter
Feb 14
Full

Hourly Weather History & Observations

Time (PST) Temp. Windchill Dew Point Humidity Pressure Visibility Wind Dir Wind Speed Gust Speed Precip Events Conditions
12:53 AM 42.1 °F 34.5 °F 39.9 °F 92% 30.26 in 6.0 mi ENE 15.0 mph 23.0 mph N/A   Overcast
1:53 AM 42.1 °F 34.2 °F 39.9 °F 92% 30.26 in 6.0 mi ENE 16.1 mph 23.0 mph N/A   Overcast
2:53 AM 42.1 °F 34.5 °F 39.9 °F 92% 30.26 in 5.0 mi ENE 15.0 mph - N/A   Overcast
3:53 AM 42.1 °F 35.2 °F 39.9 °F 92% 30.26 in 6.0 mi ENE 12.7 mph - N/A   Overcast
4:53 AM 41.0 °F 33.9 °F 39.0 °F 93% 30.26 in 6.0 mi NE 12.7 mph - N/A   Overcast
5:53 AM 41.0 °F 32.8 °F 39.0 °F 93% 30.25 in 6.0 mi ENE 16.1 mph - N/A   Overcast
6:53 AM 41.0 °F 33.1 °F 37.9 °F 89% 30.27 in 6.0 mi ENE 15.0 mph - N/A   Overcast
7:53 AM 39.9 °F 31.4 °F 37.9 °F 93% 30.27 in 6.0 mi ENE 16.1 mph 23.0 mph N/A   Overcast
8:41 AM 39.9 °F 31.4 °F 37.9 °F 93% 30.27 in 5.0 mi ENE 16.1 mph - N/A   Scattered Clouds
8:53 AM 1.0 °F -18.0 °F 1.0 °F 100% 30.28 in 5.0 mi ENE 15.0 mph - N/A   Scattered Clouds
9:07 AM 1.0 °F -18.0 °F - N/A% 30.27 in 5.0 mi ENE 15.0 mph 25.3 mph N/A   Haze
9:53 AM 1.0 °F -19.3 °F - N/A% 30.28 in 5.0 mi NE 17.3 mph - N/A   Haze
10:00 AM 1.0 °F -19.3 °F - N/A% 30.27 in 5.0 mi ENE 17.3 mph - N/A   Haze
10:53 AM 1.0 °F -19.3 °F 1.0 °F 100% 30.29 in 6.0 mi ENE 17.3 mph - N/A   Clear
11:53 AM - - - N/A% 30.27 in 6.0 mi ENE 17.3 mph - N/A   Haze
12:53 PM - - - N/A% 30.26 in 6.0 mi East 13.8 mph - N/A   Haze
1:53 PM - - - N/A% 30.23 in 6.0 mi NE 13.8 mph - N/A   Haze
2:53 PM - - - N/A% 30.23 in 6.0 mi East 12.7 mph - N/A   Haze
3:53 PM - - - N/A% 30.22 in 6.0 mi East 12.7 mph - N/A   Haze
4:53 PM - - - N/A% 30.23 in 6.0 mi ENE 11.5 mph - N/A   Haze
5:53 PM - - - N/A% 30.24 in 7.0 mi ENE 13.8 mph - N/A   Clear
6:53 PM - - - N/A% 30.25 in 7.0 mi ENE 11.5 mph - N/A   Clear
7:53 PM - - - N/A% 30.25 in 6.0 mi ENE 12.7 mph - N/A   Haze
8:53 PM - - - N/A% 30.26 in 5.0 mi ENE 13.8 mph - N/A   Haze
9:53 PM - - - N/A% 30.27 in 5.0 mi ENE 12.7 mph - N/A   Haze
10:53 PM - - - N/A% 30.27 in 5.0 mi East 12.7 mph - N/A   Haze
11:53 PM - - - N/A% 30.26 in 5.0 mi East 12.7 mph - N/A   Haze